Home   Weather   Washington DC   Past weeks

Flag for USA Past Weather in Washington DC, USA — Yesterday and Last 2 Weeks

Now
59 °F

Mostly cloudy.


Feels Like: 58 °F
Forecast: 49 / 65 °F
Wind: 8 mph from Northwest

Location: Reagan National Airport

Current Time: Mar 29, 2017 at 3:22:38 am

Latest Report: Mar 29, 2017 at 2:52 am


Visibility: 10 mi

Pressure: 29.98 "Hg

Humidity: 90%

Dew Point: 56 °F

Location of Washington DCLocation

Past Weather in Washington DC — Graph

°F

Washington DC Temperature Yesterday

Maximum temperature yesterday: 73 °F (at 4:52 pm)
Minimum temperature yesterday: 57 °F (at 1:52 am)
Average temperature yesterday: 65 °F

High & Low Weather Summary for the Past Weeks

 TemperatureHumidityPressure
High78 °F (Mar 25, 3:52 pm)100% (Mar 26, 10:52 pm)30.68 "Hg (Mar 26, 10:52 pm)
Low22 °F (Mar 15, 4:52 am)17% (Mar 22, 4:52 pm)29.52 "Hg (Mar 14, 10:52 am)
Average46 °F62%30.12 "Hg
* Reported Mar 14 2:19 am — Mar 29 2:03 am, Washington DC, Weather by CustomWeather, © 2017

Note: Actual official high and low records may vary slightly from our data, if they occured in-between our weather recording intervals... More about our weather records

Advertising

Washington DC Weather History for the Previous 24 Hours

Scroll right to see more
 ConditionsComfort  
Time TempWeatherWind HumidityBarometerVisibility
2:03 am
Wed, Mar 29
61 °FMostly cloudy.8 mph78%29.98 "Hg10 mi
12:52 am62 °FOvercast.8 mph75%29.97 "Hg10 mi
11:52 pm
Tue, Mar 28
63 °FOvercast.9 mph73%29.96 "Hg10 mi
10:52 pm64 °FMostly cloudy.10 mph75%29.94 "Hg10 mi
9:52 pm64 °FLight rain. Overcast.9 mph75%29.93 "Hg10 mi
8:52 pm66 °FPartly cloudy.6 mph68%29.90 "Hg10 mi
7:52 pm69 °FPassing clouds.9 mph59%29.87 "Hg10 mi
6:52 pm70 °FMore clouds than sun.12 mph57%29.85 "Hg10 mi
5:52 pm72 °FPartly sunny.13 mph53%29.83 "Hg10 mi
4:52 pm73 °FBroken clouds.9 mph53%29.82 "Hg10 mi
3:52 pm70 °FBroken clouds.7 mph64%29.82 "Hg10 mi
2:52 pm72 °FBroken clouds.14 mph59%29.84 "Hg10 mi
2:27 pm70 °FPartly sunny.15 mph64%29.84 "Hg10 mi
1:52 pm70 °FBroken clouds.12 mph68%29.85 "Hg10 mi
12:52 pm64 °FCloudy.12 mph87%29.86 "Hg10 mi
11:52 am68 °FMostly cloudy.10 mph78%29.85 "Hg10 mi
10:52 am65 °FMostly cloudy.9 mph87%29.85 "Hg10 mi
9:52 am65 °FLight rain. More clouds than sun.10 mph87%29.85 "Hg10 mi
8:52 am62 °FMostly cloudy.8 mph86%29.86 "Hg10 mi
7:52 am63 °FBroken clouds.7 mph84%29.85 "Hg10 mi
6:52 am61 °FPassing clouds.3 mph87%29.84 "Hg10 mi
5:52 am61 °FMostly cloudy.7 mph90%29.84 "Hg10 mi
4:52 am61 °FLight rain. Mostly cloudy.3 mph87%29.85 "Hg10 mi
3:52 am62 °FMostly cloudy.6 mph83%29.85 "Hg10 mi
Weather by CustomWeather, © 2017

See weather overviewHow to use our weather pages